Location: Palmerston North
(40.3500°S, 175.6170°E)
Time: 12:10:20
(UTC+13:00)

USA 186 - Pass Details

Date: 24 January 2019
Orbit: 262 x 443 km, 96.9° (Epoch: 04 October)

Event Time Altitude Azimuth Distance (km) Brightness Sun altitude
Rises 21:24:00 0° 162° (SSE) 2,255 5.7 -7.5°
Reaches altitude 10° 21:26:06 10° 154° (SSE) 1,365 4.5 -7.9°
Maximum altitude 21:28:51 40° 82° (E) 531 1.8 -8.3°
Drops below altitude 10° 21:31:25 10° 10° (N) 1,263 3.8 -8.7°
Enters shadow 21:32:28 - 4° (N) 1,705 4.5 -8.9°
